User: anonymous
Location: Balls_Creek
(35.6670°N, 81.1170°W)
Time: 00:25:19
(UTC-04:00)
Language:

Iridium 42 - Orbit

View from above orbital plane
View from above orbital plane
View from above satellite
View from above satellite

Ground track
Ground track

The orbit data is extracted from the following two-line orbital elements,

1 25077U 97077A   14244.46237482  .00000149  00000-0  46290-4 0  9340
2 25077 086.3925 088.2454 0002071 103.4265 256.7161 14.34222732876018
Epoch (UTC): 01 September 2014 11:05:49
Eccentricity: 0.0002071
inclination: 86.3925°
perigee height: 776 km
apogee height: 779 km
right ascension of ascending node: 88.2454°
argument of perigee: 103.4265°
revolutions per day: 14.34222732
mean anomaly at epoch: 256.7161°
orbit number at epoch: 87601

The dashed part of the orbit path shows where the satellite is in the earth's shadow,  

DLR